Temperature
16 15 15 15 15 15 15 15 15 15 15 15 15 15 15 15 15 15 15 14 15 15 15 15 15 15 15 15 14 15 15 14 15 15 15 15 15 15 15 15 15 15 15
15 15 15 15 15 15 15 15 15 15 15 15 15 15 14 14 14 14 14 14 14 14 14 14 14 14 14 14 14 14 14 14 14 14 14 14 14 14 14 14 14 15 15
15 15 15 15 15 15 15 15 15 15 15 14 14 14 14 14 14 14 14 14 14 14 14 14 14 14 14 14 14 14 14 14 14 14 14 14 14 14 14 14 14 14 14
15 15 15 15 15 15 15 15 15 15 14 14 14 14 14 14 14 13 13 13 13 14 13 13 13 13 13 13 13 13 13 13 13 13 14 14 14 14 14 14 14 14 14
15 15 15 15 15 15 15 15 14 14 14 14 14 14 13 13 13 13 13 13 13 13 13 13 13 13 13 13 13 13 13 13 13 13 13 13 13 13 13 14 14 14 14
14 15 14 14 14 14 14 14 14 14 14 14 14 13 13 13 13 13 13 13 13 13 13 13 13 13 13 13 13 13 13 13 13 13 13 13 13 13 13 13 13 13 13
14 14 14 14 14 14 14 14 14 14 13 13 13 13 13 13 13 12 12 13 13 12 12 12 12 12 12 12 12 12 12 12 12 12 12 12 12 13 13 13 13 13 13
14 14 14 14 14 14 14 14 13 13 13 13 13 13 12 12 12 12 12 12 12 12 12 12 12 12 12 12 12 12 12 12 12 12 12 12 12 12 12 12 12 12 12
13 13 13 13 13 13 13 13 13 13 13 13 13 12 12 12 11 11 12 12 12 12 12 11 11 11 11 12 12 12 12 12 12 11 11 12 12 12 12 12 12 12 12
13 13 13 13 13 13 13 13 13 12 12 12 12 12 12 12 11 11 11 11 11 11 11 11 11 11 11 11 11 11 11 11 11 11 11 11 11 11 11 11 11 11 12
13 13 12 12 12 12 12 12 12 12 12 12 12 12 12 11 11 11 10 10 11 11 11 11 11 11 11 11 11 11 11 11 11 11 11 11 11 11 11 11 11 11 11
12 12 12 12 12 12 12 12 12 12 11 11 11 11 11 11 11 11 10 10 10 10 10 10 10 10 10 10 10 10 10 10 10 10 10 10 10 10 10 11 11 11 11
12 12 11 11 11 11 11 11 11 11 11 11 11 11 11 11 10 10 10 9 9 9 9 10 10 10 10 10 10 10 10 10 10 10 10 10 10 10 10 10 10 10 10
12 11 11 11 11 11 11 11 11 11 10 10 10 10 10 10 10 10 10 9 9 9 9 9 9 9 9 9 9 9 9 9 9 9 9 9 9 9 9 9 10 10 10
11 11 11 11 11 11 11 10 10 10 10 10 10 10 10 10 10 10 10 10 9 9 8 9 9 9 9 9 9 9 9 9 9 9 9 9 9 9 9 9 9 9 9
11 11 11 11 10 10 10 10 10 10 10 10 9 9 9 9 9 9 9 9 9 9 8 8 8 8 8 8 8 9 9 9 9 9 8 8 8 8 9 9 9 9 9
11 11 11 10 10 10 10 10 10 9 9 9 9 9 9 9 9 9 9 9 9 9 9 8 8 8 8 8 8 8 8 8 8 8 8 8 8 8 8 8 8 8 8
11 11 10 10 10 10 10 9 9 9 9 9 9 9 9 9 9 9 9 8 8 8 8 8 8 8 8 8 8 8 8 8 8 8 8 8 8 8 8 8 8 8 8
11 10 10 10 10 10 9 9 9 9 9 9 9 9 9 8 8 8 8 8 8 8 8 8 7 7 7 7 7 8 7 7 7 7 7 7 7 7 7 7 7 8 8
11 10 10 10 10 9 9 9 9 9 9 9 9 8 8 8 8 8 8 8 8 8 7 7 7 7 7 7 7 7 7 7 7 7 7 7 7 7 7 7 7 7 7
10 10 10 10 9 9 9 9 9 8 8 8 8 8 8 8 8 8 8 8 7 7 7 7 7 7 7 7 6 6 7 7 7 7 7 7 7 7 7 7 7 7 7
10 10 10 9 9 9 9 9 8 8 8 8 8 8 8 8 8 8 7 7 7 7 7 7 6 6 6 6 6 6 6 6 6 6 6 7 7 7 7 7 7 7 7
9 9 9 9 9 9 9 9 8 8 8 8 8 8 8 7 7 7 7 7 7 7 6 6 6 6 6 6 6 6 6 6 6 6 6 6 6 6 6 6 6 6 6
9 9 9 9 9 9 8 8 8 8 8 8 7 7 7 7 7 7 7 7 6 6 6 6 6 6 6 6 6 6 5 5 5 6 6 6 6 6 6 6 6 6 6
9 9 9 8 8 8 8 8 8 8 8 8 7 7 7 7 7 7 6 6 6 6 6 6 6 6 6 5 5 5 5 5 5 5 5 5 5 6 6 6 6 6 6
8 8 8 8 8 8 8 8 8 7 7 7 7 7 7 7 6 6 6 6 6 6 6 6 6 6 5 5 5 5 5 5 5 5 5 5 5 5 5 5 6 6 6
Wind_Speed
2 3 3 4 4 5 5 5 5 5 5 6 7 7 7 7 7 6 6 9 9 10 10 11 10 10 10 10 10 10 10 10 10 10 10 9 9 9 8 6 6 6 6
4 3 3 3 4 5 5 5 5 4 4 4 5 6 6 6 6 6 6 7 9 9 10 10 11 10 11 10 10 9 9 9 9 8 9 9 9 9 8 7 6 5 5
6 5 3 3 4 5 5 5 6 5 4 5 5 4 4 5 6 6 6 6 7 8 9 10 10 10 10 10 9 9 9 9 8 8 8 8 8 8 8 8 7 6 5
8 6 4 3 4 5 4 3 4 4 4 4 4 4 4 4 5 5 6 6 6 6 8 9 10 10 10 9 9 9 9 8 7 7 7 7 7 7 8 8 7 6 6
8 6 4 4 5 5 4 3 4 3 4 4 3 4 4 3 3 5 5 5 6 6 7 8 9 10 9 10 9 9 8 8 7 7 7 7 7 7 7 7 7 6 6
7 6 5 5 5 4 4 4 4 4 3 3 4 4 4 4 3 3 4 4 5 6 7 7 6 7 9 9 9 9 9 8 7 7 7 7 7 7 7 6 6 6 6
6 6 5 4 4 4 4 3 3 4 4 3 4 4 4 5 5 4 4 4 5 6 7 7 6 6 6 7 8 8 9 9 7 8 7 7 8 7 7 8 7 7 6
5 5 5 3 3 4 5 4 4 3 3 3 3 3 3 4 5 5 4 4 4 5 5 6 6 6 6 6 7 8 8 8 8 8 8 7 7 7 7 7 7 7 7
5 6 5 4 4 4 3 3 3 3 2 2 2 3 3 1 1 3 4 4 4 3 3 4 4 5 5 6 6 7 7 7 7 7 8 7 7 7 8 7 7 7 7
5 6 5 5 4 3 3 2 3 2 2 1 2 2 2 3 2 1 3 3 3 3 3 3 3 4 5 5 5 7 7 7 7 6 6 6 6 6 7 7 7 7 6
4 5 4 4 4 3 2 3 3 3 2 2 1 1 2 2 2 2 1 2 3 3 3 1 2 3 4 4 4 5 7 7 6 6 6 6 6 7 7 7 7 7 6
2 3 4 4 3 3 2 2 2 3 2 2 2 2 1 1 0 1 1 1 1 2 3 2 1 2 3 3 4 5 5 5 6 5 5 6 6 7 7 7 7 7 7
1 1 2 3 2 2 3 3 2 2 2 2 2 1 1 1 1 1 2 1 0 2 2 2 1 1 1 2 3 3 4 4 4 4 4 4 5 6 6 6 7 7 7
2 2 3 3 3 3 3 3 2 1 2 1 2 1 1 0 1 1 2 2 0 2 2 3 2 2 2 1 2 3 3 3 3 3 3 3 4 4 5 5 6 6 6
3 3 3 3 2 3 3 3 2 1 2 1 1 2 1 1 0 0 1 2 2 1 2 3 2 2 2 1 1 1 1 2 2 1 2 2 2 3 3 4 4 4 5
2 3 2 2 2 2 2 3 2 1 2 1 1 2 1 1 1 1 1 0 1 2 2 2 2 2 2 2 3 2 1 2 2 1 1 1 2 2 2 3 4 4 4
3 4 3 3 2 2 2 2 1 1 2 1 1 1 1 1 1 1 1 1 0 1 1 2 2 2 2 2 2 3 3 2 1 1 1 1 1 2 2 3 4 4 4
3 4 3 3 3 2 2 2 2 1 1 1 0 0 1 1 1 0 1 0 0 1 2 2 2 2 2 2 2 2 3 3 2 1 0 1 1 1 2 3 3 4 4
3 3 3 3 3 2 2 2 2 2 2 2 2 1 1 1 0 0 0 0 1 0 1 1 2 2 1 1 2 2 3 2 3 2 1 1 2 2 2 2 3 3 3
3 3 3 3 3 3 3 3 2 2 2 2 2 2 2 2 2 2 1 1 1 0 0 1 1 1 1 2 0 1 2 2 2 3 2 2 2 3 3 3 3 2 2
3 3 3 3 3 3 3 3 3 2 2 2 2 2 3 2 2 2 1 2 1 1 1 1 1 1 1 1 2 1 2 3 3 2 2 2 2 2 3 4 4 3 3
3 3 3 4 3 3 3 3 3 3 3 2 2 2 2 1 2 3 3 3 2 2 2 2 2 3 3 3 2 1 1 1 2 2 1 3 1 2 4 4 5 4 4
2 2 3 3 3 4 4 3 3 3 3 3 3 2 2 2 2 2 3 3 3 3 4 3 3 5 4 4 3 2 2 2 3 3 1 3 2 3 4 5 5 5 4
3 3 3 3 3 4 4 4 3 2 2 3 3 3 3 3 3 2 1 1 2 3 4 3 5 6 6 5 5 4 4 2 2 2 1 2 3 3 4 5 5 4 4
3 3 3 3 3 4 5 4 3 2 2 3 3 3 3 4 4 2 1 2 3 4 4 5 5 5 5 4 4 2 1 1 2 3 1 1 2 3 3 3 4 4 4
4 3 3 3 3 4 4 5 4 3 3 2 2 3 5 4 4 3 2 2 3 4 3 3 3 3 2 3 4 4 4 3 2 3 2 1 2 1 2 2 2 3 3
Wind_Direction
84 67 59 54 49 52 56 53 49 52 56 60 67 75 73 74 73 75 76 76 74 77 77 79 80 80 76 77 77 76 73 69 66 64 62 59 59 59 62 64 72 78 75
83 80 65 52 48 51 60 63 59 60 55 60 61 67 72 79 77 79 75 69 69 74 78 80 80 78 74 73 75 74 72 69 65 63 60 58 56 55 52 53 63 67 69
82 79 72 52 43 55 61 62 55 57 59 57 55 60 70 77 81 77 75 67 63 70 80 81 78 74 71 68 70 69 67 66 62 59 59 59 54 52 49 48 52 54 55
82 79 74 58 52 56 54 65 56 58 54 54 49 46 54 62 72 80 78 68 62 63 70 78 76 71 67 65 65 61 62 61 58 56 61 59 54 53 49 47 46 48 48
81 82 76 59 61 60 50 64 60 67 66 57 58 52 46 49 50 68 65 66 67 70 69 70 72 70 67 65 62 56 56 55 56 54 56 56 56 53 50 48 46 47 49
77 81 78 60 63 64 51 55 69 60 68 64 69 53 36 39 44 51 55 61 63 70 72 73 71 69 66 63 60 57 54 50 51 51 53 55 56 52 49 47 48 47 49
76 76 79 70 67 72 63 61 78 68 51 50 67 43 22 30 41 36 36 49 51 61 70 72 71 70 66 59 54 53 51 50 55 55 54 56 55 52 51 50 50 50 52
80 86 88 83 75 74 60 52 67 75 52 50 85 79 31 11 17 21 26 45 44 53 59 65 73 74 69 59 50 49 47 45 51 54 51 51 52 50 48 49 51 49 50
83 86 92 91 86 85 81 62 68 86 86 30 66 115 121 181 333 358 17 29 28 34 34 59 64 69 71 58 50 48 45 42 44 49 50 50 52 51 47 46 46 43 46
77 86 90 91 89 85 89 83 73 75 99 82 16 41 123 154 140 354 348 0 11 23 15 38 52 58 60 55 48 46 45 42 39 42 43 44 47 47 43 38 35 33 35
66 81 90 91 89 88 94 81 71 74 87 107 82 44 53 55 79 139 263 330 351 351 359 15 60 58 56 56 51 45 44 43 40 41 43 44 43 38 32 30 29 28 27
59 70 87 88 90 90 93 93 84 83 82 88 83 81 104 107 135 126 174 267 318 323 343 358 39 49 56 56 47 37 39 45 44 42 44 41 40 36 29 29 29 28 29
102 106 97 92 93 101 104 91 89 84 86 90 87 78 94 151 168 152 145 196 288 311 336 338 332 27 41 53 40 28 37 51 50 50 54 49 44 35 29 24 23 25 23
183 154 120 113 111 107 102 88 91 95 88 84 66 62 71 51 127 139 155 149 21 335 335 303 319 338 360 34 21 21 34 40 46 55 60 59 52 42 35 26 20 19 16
166 135 127 122 116 110 102 98 89 90 88 79 69 63 68 39 66 108 136 154 160 224 287 287 308 318 344 351 350 37 29 18 26 58 53 50 45 36 32 23 17 13 10
144 138 137 133 124 114 107 106 97 91 89 73 85 76 58 40 45 54 108 138 158 173 231 266 271 295 325 356 349 349 343 347 5 23 6 13 30 23 31 27 21 14 13
157 159 161 154 144 134 124 115 120 105 98 58 45 71 28 57 70 35 61 84 98 143 205 287 299 312 334 331 337 357 347 344 338 348 347 8 17 28 37 24 18 16 15
164 161 155 154 161 157 143 147 165 149 154 165 276 45 318 23 53 18 69 105 203 182 173 261 304 315 305 294 307 318 336 318 296 301 298 315 325 357 7 12 10 15 16
171 162 163 169 176 172 164 179 178 184 197 204 203 200 227 176 285 298 326 276 249 238 168 196 280 288 288 304 328 327 326 314 302 286 266 284 294 308 320 328 344 360 5
172 171 174 175 174 176 180 180 176 189 209 220 216 211 212 203 213 221 241 242 220 169 175 191 280 283 281 285 319 317 316 310 305 310 295 283 272 281 288 297 309 316 321
178 176 173 175 175 185 194 186 189 185 189 215 236 235 226 221 233 234 243 226 204 197 203 245 279 279 283 269 257 263 286 300 295 290 290 293 294 288 286 280 284 290 296
183 178 186 189 197 215 211 197 181 187 191 196 225 256 259 258 269 282 267 248 224 210 217 225 256 243 246 241 244 253 272 312 296 290 262 277 278 269 282 275 279 282 288
183 189 206 201 212 228 216 194 184 179 195 205 209 224 255 276 294 271 280 288 269 244 223 215 231 234 230 226 213 230 236 242 259 274 275 273 277 267 280 279 278 276 281
199 205 212 213 214 235 225 208 189 175 205 223 218 210 219 249 257 256 252 282 272 264 252 241 230 232 227 214 204 211 223 262 291 292 252 263 270 276 286 287 276 274 280
212 216 210 204 213 240 235 219 188 181 208 233 239 230 222 233 254 262 223 249 272 282 283 273 257 249 245 232 199 165 188 230 279 281 267 247 272 289 288 277 283 279 281
209 212 216 214 215 238 241 224 196 187 207 234 251 249 244 244 251 242 204 220 250 266 278 303 302 296 276 239 219 194 194 210 242 268 246 222 266 302 293 278 284 294 297
Height
1527 1526 1526 1525 1525 1524 1524 1523 1523 1522 1522 1521 1521 1520 1520 1520 1520 1520 1520 1520 1520 1520 1520 1520 1519 1519 1519 1518 1518 1518 1518 1517 1517 1516 1516 1515 1515 1515 1515 1514 1514 1514 1514
1528 1527 1527 1526 1526 1525 1525 1524 1524 1523 1523 1523 1522 1522 1522 1522 1521 1521 1521 1521 1521 1521 1521 1521 1520 1520 1519 1519 1519 1518 1518 1517 1517 1517 1516 1515 1515 1515 1514 1514 1514 1514 1514
1528 1528 1527 1527 1526 1526 1525 1525 1525 1525 1524 1524 1523 1523 1523 1523 1523 1523 1523 1522 1522 1522 1522 1521 1521 1520 1520 1520 1519 1519 1518 1518 1517 1517 1516 1516 1515 1515 1514 1514 1514 1513 1513
1529 1528 1528 1527 1527 1526 1526 1525 1525 1525 1524 1524 1524 1524 1524 1524 1524 1523 1523 1523 1523 1523 1522 1522 1521 1521 1521 1520 1520 1519 1518 1518 1517 1517 1516 1516 1515 1515 1514 1514 1513 1513 1513
1529 1528 1528 1527 1527 1526 1526 1525 1525 1525 1525 1525 1525 1525 1525 1524 1524 1524 1524 1524 1523 1523 1523 1523 1522 1522 1521 1521 1520 1519 1518 1518 1517 1517 1516 1515 1515 1514 1514 1514 1513 1513 1513
1529 1528 1528 1527 1527 1527 1526 1526 1525 1525 1525 1525 1525 1525 1525 1525 1525 1525 1524 1524 1524 1523 1523 1523 1523 1522 1521 1521 1520 1519 1518 1517 1517 1516 1516 1515 1515 1514 1514 1513 1513 1513 1512
1529 1528 1528 1527 1527 1527 1526 1526 1525 1525 1525 1525 1525 1525 1526 1526 1526 1526 1525 1525 1524 1524 1524 1523 1523 1522 1522 1521 1520 1519 1518 1517 1516 1516 1516 1515 1515 1514 1514 1513 1513 1512 1512
1529 1528 1527 1527 1527 1527 1526 1526 1526 1525 1525 1526 1526 1525 1526 1527 1527 1527 1526 1526 1525 1524 1524 1523 1523 1522 1522 1521 1520 1519 1518 1517 1516 1515 1515 1515 1514 1514 1513 1513 1513 1512 1512
1528 1527 1527 1527 1526 1526 1526 1526 1526 1525 1525 1525 1526 1526 1526 1526 1526 1527 1526 1526 1525 1524 1524 1523 1523 1522 1521 1521 1520 1519 1518 1517 1516 1515 1515 1514 1514 1513 1513 1513 1512 1512 1511
1527 1527 1526 1526 1526 1526 1525 1525 1525 1525 1525 1524 1525 1525 1525 1525 1525 1526 1526 1525 1525 1524 1524 1523 1522 1521 1521 1520 1519 1518 1517 1516 1515 1515 1514 1514 1513 1513 1512 1512 1511 1511 1510
1527 1526 1526 1525 1525 1525 1525 1525 1524 1524 1524 1524 1524 1524 1524 1524 1524 1524 1524 1524 1524 1524 1523 1523 1522 1521 1520 1520 1518 1518 1517 1515 1515 1514 1514 1513 1512 1512 1511 1511 1510 1509 1509
1526 1525 1525 1525 1525 1524 1524 1524 1524 1524 1523 1523 1523 1523 1523 1523 1523 1523 1522 1522 1522 1522 1522 1522 1521 1520 1520 1519 1518 1517 1516 1515 1514 1513 1513 1512 1512 1511 1510 1509 1509 1508 1507
1524 1524 1524 1524 1524 1524 1524 1524 1523 1523 1523 1523 1523 1522 1522 1522 1522 1522 1521 1521 1521 1521 1521 1521 1520 1519 1518 1518 1517 1516 1515 1514 1513 1512 1512 1511 1511 1510 1509 1508 1508 1507 1506
1523 1523 1523 1523 1523 1523 1523 1523 1522 1522 1522 1522 1522 1521 1521 1521 1521 1521 1521 1520 1519 1519 1519 1519 1518 1518 1517 1516 1516 1515 1514 1513 1512 1511 1511 1510 1509 1509 1508 1507 1507 1506 1505
1522 1522 1522 1522 1522 1522 1522 1521 1521 1521 1521 1521 1521 1520 1520 1520 1520 1520 1520 1519 1519 1517 1517 1517 1517 1516 1515 1515 1514 1513 1512 1512 1511 1510 1510 1509 1508 1508 1507 1506 1505 1505 1504
1521 1521 1521 1521 1521 1521 1520 1520 1520 1520 1520 1520 1519 1519 1519 1519 1518 1518 1518 1518 1517 1517 1516 1515 1515 1514 1513 1513 1512 1512 1511 1510 1509 1509 1508 1508 1507 1507 1506 1505 1504 1504 1503
1519 1519 1519 1519 1519 1519 1519 1519 1518 1518 1518 1518 1518 1518 1517 1517 1517 1516 1516 1516 1515 1515 1514 1513 1513 1512 1511 1511 1510 1509 1509 1508 1507 1507 1507 1506 1506 1505 1505 1504 1503 1502 1501
1517 1517 1517 1517 1517 1517 1517 1517 1517 1517 1517 1516 1516 1516 1516 1516 1515 1515 1514 1514 1513 1513 1512 1511 1510 1509 1509 1508 1508 1507 1507 1506 1506 1505 1505 1504 1504 1503 1503 1502 1501 1501 1500
1515 1515 1516 1516 1516 1516 1516 1515 1515 1515 1515 1515 1514 1514 1514 1514 1513 1513 1512 1512 1511 1511 1510 1509 1507 1507 1506 1506 1505 1505 1504 1504 1504 1503 1503 1502 1502 1501 1501 1500 1500 1499 1498
1513 1513 1514 1514 1514 1513 1514 1513 1513 1513 1513 1513 1513 1512 1512 1512 1511 1511 1510 1509 1509 1508 1507 1506 1505 1504 1504 1503 1503 1502 1501 1501 1501 1501 1501 1500 1500 1500 1499 1498 1498 1497 1496
1511 1511 1511 1511 1511 1511 1511 1511 1511 1511 1511 1510 1510 1510 1510 1509 1509 1508 1508 1507 1506 1505 1504 1503 1502 1501 1500 1500 1500 1499 1499 1498 1499 1499 1498 1498 1497 1497 1497 1496 1495 1495 1494
1508 1509 1509 1509 1509 1509 1509 1509 1509 1508 1508 1508 1507 1507 1507 1507 1506 1506 1505 1504 1504 1503 1501 1500 1500 1499 1498 1497 1497 1497 1496 1496 1495 1497 1496 1495 1495 1494 1494 1493 1493 1492 1492
1505 1506 1506 1506 1506 1506 1507 1507 1506 1506 1505 1505 1504 1504 1504 1504 1503 1502 1502 1501 1500 1500 1499 1498 1497 1496 1495 1495 1494 1494 1494 1493 1493 1493 1493 1492 1492 1491 1491 1490 1490 1490 1489
1502 1503 1503 1503 1503 1504 1504 1504 1504 1503 1503 1502 1502 1501 1501 1500 1500 1500 1499 1498 1497 1496 1495 1494 1494 1493 1493 1492 1492 1491 1491 1491 1490 1490 1490 1489 1488 1488 1488 1487 1487 1486 1486
1499 1500 1500 1500 1500 1500 1501 1501 1501 1500 1499 1499 1499 1499 1498 1497 1497 1496 1495 1494 1493 1492 1492 1491 1490 1490 1490 1489 1489 1488 1487 1487 1486 1486 1486 1485 1485 1484 1484 1484 1484 1483 1482
1496 1496 1496 1497 1497 1497 1497 1497 1497 1497 1496 1495 1495 1495 1495 1494 1494 1493 1492 1491 1489 1489 1488 1487 1487 1486 1486 1486 1485 1485 1484 1484 1483 1482 1483 1483 1482 1481 1480 1480 1480 1480 1479